This is the latest recevied weather packets stored in our database for station/object K4IR. If no packets are shown the sender has not sent any weather packets the latest 10 day(s).
| Time | Temp. | Humidity | Pressure | Rain* | Wind** | Luminosity | Snow |
|---|---|---|---|---|---|---|---|
| 1787958781 | 26.67° C | 91% | 1017.6 hPa | 0 mm | - | 15 W/m² | - |
| 1787958179 | 26.67° C | 90% | 1017.4 hPa | 0 mm | - | 24 W/m² | - |
| 1787957578 | 26.67° C | 89% | 1017.2 hPa | 0 mm | - | 36 W/m² | - |
| 1787956973 | 26.67° C | 89% | 1017 hPa | 0 mm | - | 41 W/m² | - |
| 1787956374 | 27.22° C | 87% | 1016.9 hPa | 0 mm | - | 61 W/m² | - |
| 1787955770 | 27.22° C | 88% | 1017.1 hPa | 0 mm | - | 95 W/m² | - |
| 1787955170 | 26.67° C | 88% | 1017 hPa | 0 mm | - | 86 W/m² | - |
| 1787954568 | 26.67° C | 89% | 1017.2 hPa | 0 mm | - | 61 W/m² | - |
| 1787953968 | 26.67° C | 88% | 1017.1 hPa | 0 mm | - | 59 W/m² | - |
| 1787953368 | 27.22° C | 88% | 1017 hPa | 0 mm | - | 58 W/m² | - |
| 1787952765 | 27.22° C | 86% | 1017.3 hPa | 0 mm | - | 80 W/m² | - |
| 1787952163 | 26.67° C | 87% | 1017.2 hPa | 0 mm | - | 96 W/m² | - |
| 1787951563 | 27.22° C | 87% | 1017.3 hPa | 0 mm | - | 80 W/m² | - |
| 1787950960 | 27.22° C | 87% | 1017.2 hPa | 0 mm | - | 88 W/m² | - |
| 1787950358 | 27.22° C | 86% | 1017.1 hPa | 0 mm | - | 111 W/m² | - |
| 1787949755 | 27.78° C | 85% | 1017.2 hPa | 0 mm | - | 143 W/m² | - |
| 1787949155 | 27.22° C | 85% | 1017.4 hPa | 0 mm | - | 161 W/m² | - |
| 1787948551 | 27.22° C | 86% | 1017.2 hPa | 0 mm | - | 126 W/m² | - |
| 1787947951 | 27.22° C | 86% | 1017.4 hPa | 0 mm | - | 108 W/m² | - |
| 1787947351 | 27.22° C | 84% | 1017.4 hPa | 0 mm | - | 125 W/m² | - |
| 1787946749 | 27.78° C | 84% | 1017.3 hPa | 0 mm | - | 182 W/m² | - |
| 1787946149 | 27.78° C | 83% | 1017.6 hPa | 0 mm | - | 205 W/m² | - |
| 1787945545 | 27.78° C | 83% | 1017.5 hPa | 0 mm | - | 191 W/m² | - |
| 1787944946 | 27.78° C | 83% | 1017.4 hPa | 0 mm | - | 191 W/m² | - |
| 1787944345 | 28.33° C | 80% | 1017.7 hPa | 0 mm | - | 238 W/m² | - |
* Rain latest hour (hover to see other rain measurements)
** Current wind speed in m/s (hover to see current wind gust speed)